{"data":{"norad_id":58842,"intl_designator":"2024-017S","name":"STARLINK-31228","alt_names":[],"object_type":"PAYLOAD","status":"ACTIVE","operator":null,"country":"US","launch_date":"2024-01-24","launch_site_code":"AFWTR","launch_vehicle":null,"mission":null,"orbit_class":"UNKNOWN","rcs_meters":null,"size_class":null,"mass_kg":null,"dimensions":null,"purposes":["comms"],"wikipedia_slug":null,"has_3d_model":false,"image_url":null,"decayed_at":null,"tle_current":{"epoch":"2026-05-25T03:57:57.408192Z","epoch_age_seconds":57866,"freshness":"FRESH","line1":"1 58842U 24017S   26145.16524778  .00000990  00000+0  45572-4 0  9993","line2":"2 58842  53.1611 209.1897 0001152  97.7237 262.3894 15.30190518131761","mean_motion":15.30190518,"eccentricity":0.0001152,"inclination_deg":53.1611,"raan_deg":209.1897,"arg_perigee_deg":97.7237,"mean_anomaly_deg":262.3894,"bstar":4.5572e-5,"rev_number":13176,"period_min":94.105928840947,"perigee_km":474.45387168847,"apogee_km":476.03289052828,"semimajor_km":6853.3803811084,"source":"CELESTRAK","updated_at":"2026-05-25T13:38:18.755907Z"}}}